This is the latest recevied weather packets stored in our database for station/object W0AKO. If no packets are shown the sender has not sent any weather packets the latest 10 day(s).
| Time | Temp. | Humidity | Pressure | Rain* | Wind** | Luminosity | Snow |
|---|---|---|---|---|---|---|---|
| 1777241259 | 15.56° C | 10% | 1010.5 hPa | 0 mm | - | 66 W/m² | - |
| 1777240956 | 15.56° C | 10% | 1010.5 hPa | 0 mm | - | 57 W/m² | - |
| 1777240655 | 15.56° C | 10% | 1010.6 hPa | 0 mm | - | 55 W/m² | - |
| 1777240352 | 15.56° C | 10% | 1010.5 hPa | 0 mm | - | 57 W/m² | - |
| 1777240050 | 15.56° C | 10% | 1010.3 hPa | 0 mm | - | 61 W/m² | - |
| 1777239747 | 15.56° C | 10% | 1010.5 hPa | 0 mm | - | 67 W/m² | - |
| 1777239443 | 15.56° C | 10% | 1010.5 hPa | 0 mm | - | 66 W/m² | - |
| 1777239140 | 15.56° C | 10% | 1010.4 hPa | 0 mm | - | 66 W/m² | - |
| 1777238837 | 15.56° C | 10% | 1010.4 hPa | 0 mm | - | 64 W/m² | - |
| 1777238535 | 15.56° C | 10% | 1010.4 hPa | 0 mm | - | 60 W/m² | - |
| 1777238231 | 15.56° C | 10% | 1010.2 hPa | 0 mm | - | 64 W/m² | - |
| 1777237929 | 15.56° C | 10% | 1010.2 hPa | 0 mm | - | 72 W/m² | - |
| 1777237623 | 15.56° C | 10% | 1010.2 hPa | 0 mm | - | 70 W/m² | - |
| 1777237322 | 15.56° C | 10% | 1010.1 hPa | 0 mm | - | 69 W/m² | - |
| 1777237019 | 15.56° C | 10% | 1010.1 hPa | 0 mm | - | 78 W/m² | - |
| 1777236716 | 15.56° C | 10% | 1010.2 hPa | 0 mm | - | 62 W/m² | - |
| 1777236415 | 15.56° C | 10% | 1010.1 hPa | 0 mm | - | 71 W/m² | - |
| 1777236112 | 15.56° C | 10% | 1010.1 hPa | 0 mm | - | 92 W/m² | - |
| 1777235808 | 15.56° C | 10% | 1009.8 hPa | 0 mm | - | 98 W/m² | - |
| 1777235505 | 15.56° C | 10% | 1009.8 hPa | 0 mm | - | 94 W/m² | - |
| 1777235201 | 15° C | 10% | 1009.8 hPa | 0 mm | - | 90 W/m² | - |
| 1777234897 | 15.56° C | 10% | 1010.1 hPa | 0 mm | - | 83 W/m² | - |
| 1777234593 | 15° C | 10% | 1009.8 hPa | 0 mm | - | 80 W/m² | - |
| 1777234287 | 15° C | 10% | 1009.9 hPa | 0 mm | - | 92 W/m² | - |
| 1777233984 | 15° C | 10% | 1009.5 hPa | 0 mm | - | 101 W/m² | - |
* Rain latest hour (hover to see other rain measurements)
** Current wind speed in m/s (hover to see current wind gust speed)